Flag for U.S.A. Weather past 2 weeks in Las Cruces, New Mexico, U.S.A.

Now
49 °F

Passing clouds.


Feels Like: 46 °F
Forecast: 40 / 57 °F
Wind: 7 mph from South

Location: Las Cruces International

Current Time: Mar 3, 2015 at 10:03:47 PM

Latest Report: Mar 3, 2015 at 9:15 PM


Visibility: 10 mi

Pressure: 29.87 "Hg

Humidity: 82%

Dew point: 44 °F

Location of Las CrucesLocation

Historic Weather in Las Cruces — Graph

°F

Las Cruces temperature yesterday

Maximum temperature yesterday: 62 °F (at 12:15 AM)
Minimum temperature yesterday: 51 °F (at 6:15 AM)
Average temperature yesterday: 56 °F

Past Weeks' High & Low Weather Summary

 TemperatureHumidityPressure
High75 °F (Feb 19, 4:15 PM)96% (Feb 24, 5:15 AM)30.26 "Hg (Feb 24, 5:15 AM)
Low24 °F (Feb 24, 5:35 AM)10% (Feb 18, 1:55 PM)29.83 "Hg (Mar 3, 5:15 PM)
Average49 °F49%30.02 "Hg
* Reported Feb 16 9:15 PM — Mar 3 9:15 PM, Las Cruces, Weather by CustomWeather, © 2015

Note: Actual official high and low records may vary slightly from our data, if they occured in-between our weather recording intervals... More about our weather records

Advertising

Las Cruces weather history for previous 24 hours

 ConditionsComfort  
Time TempWeatherWind HumidityBarometerVisibility
9:15 PM
Tue, Mar 3
49 °FPassing clouds.7 mph82%29.87 "Hg10 mi
8:15 PM51 °FClear.10 mph76%29.87 "Hg10 mi
7:55 PM52 °FClear.9 mph74%29.87 "Hg10 mi
7:35 PM52 °FPassing clouds.10 mph73%29.86 "Hg10 mi
7:15 PM53 °FPassing clouds.8 mph69%29.86 "Hg10 mi
6:55 PM54 °FPassing clouds.9 mph66%29.85 "Hg10 mi
6:35 PM54 °FClear.10 mph61%29.85 "Hg10 mi
6:15 PM55 °FClear.13 mph60%29.85 "Hg10 mi
5:55 PM55 °FSunny.13 mph57%29.84 "Hg10 mi
5:35 PM57 °FSunny.17 mph51%29.84 "Hg10 mi
5:15 PM57 °FSunny.20 mph52%29.83 "Hg10 mi
4:55 PM58 °FScattered clouds.15 mph53%29.84 "Hg10 mi
4:35 PM58 °FScattered clouds.20 mph52%29.84 "Hg10 mi
4:15 PM58 °FScattered clouds.18 mph53%29.84 "Hg10 mi
3:55 PM58 °FScattered clouds.15 mph53%29.84 "Hg10 mi
3:35 PM57 °FBroken clouds.16 mph54%29.84 "Hg10 mi
3:15 PM56 °FBroken clouds.16 mph56%29.86 "Hg10 mi
2:55 PM57 °FBroken clouds.18 mph60%29.86 "Hg10 mi
2:15 PM54 °FMostly cloudy.15 mph70%29.89 "Hg10 mi
1:55 PM53 °FRain. Mostly cloudy.10 mph78%29.90 "Hg10 mi
1:35 PM54 °FMostly cloudy.10 mph69%29.90 "Hg10 mi
1:15 PM54 °FCloudy.10 mph70%29.90 "Hg10 mi
12:35 PM53 °FCloudy.8 mph78%29.92 "Hg10 mi
12:15 PM51 °FLight rain. Cloudy.10 mph82%29.94 "Hg10 mi
11:55 AM51 °FCloudy.7 mph85%29.94 "Hg10 mi
11:35 AM50 °FDrizzle. Cloudy.7 mph84%29.94 "Hg10 mi
11:15 AM50 °FLight rain. Cloudy.5 mph90%29.95 "Hg10 mi
10:55 AM50 °FLight rain. Cloudy.5 mph89%29.95 "Hg10 mi
10:35 AM50 °FLight rain. Cloudy.No wind88%29.95 "Hg10 mi
10:15 AM49 °FCloudy.No wind85%29.95 "Hg10 mi
9:55 AM48 °FRain. Mostly cloudy.3 mph89%29.95 "Hg7 mi
9:35 AM48 °FLight rain. Overcast.3 mph92%29.95 "Hg10 mi
9:15 AM48 °FLight rain. Mostly cloudy.6 mph91%29.95 "Hg10 mi
8:55 AM48 °FLight rain. Overcast.5 mph92%29.95 "Hg10 mi
8:35 AM48 °FRain. Overcast.5 mph94%29.95 "Hg10 mi
8:15 AM48 °FLight rain. More clouds than sun.No wind95%29.95 "Hg10 mi
7:55 AM47 °FDrizzle. More clouds than sun.3 mph95%29.94 "Hg10 mi
7:35 AM47 °FDrizzle. More clouds than sun.6 mph95%29.93 "Hg10 mi
7:15 AM47 °FRain. Cloudy.5 mph96%29.93 "Hg10 mi
6:55 AM47 °FLight rain. Cloudy.9 mph96%29.93 "Hg5 mi
6:35 AM47 °FRain. Cloudy.7 mph94%29.92 "Hg5 mi
6:15 AM47 °FLight rain. Mostly cloudy.5 mph95%29.91 "Hg10 mi
5:55 AM47 °FMostly cloudy.6 mph94%29.90 "Hg10 mi
5:35 AM47 °FOvercast.No wind94%29.90 "Hg10 mi
5:15 AM48 °FOvercast.8 mph93%29.91 "Hg10 mi
4:55 AM48 °FOvercast.6 mph92%29.92 "Hg10 mi
4:35 AM48 °FDrizzle. Overcast.6 mph93%29.91 "Hg10 mi
4:15 AM49 °FLight rain. Overcast.6 mph92%29.92 "Hg10 mi
3:55 AM49 °FLight rain. Overcast.5 mph90%29.92 "Hg10 mi
3:35 AM50 °FRain. Mostly cloudy.7 mph86%29.92 "Hg10 mi
3:15 AM51 °FLight rain. Overcast.8 mph82%29.92 "Hg10 mi
2:55 AM52 °FMostly cloudy.10 mph77%29.92 "Hg10 mi
2:35 AM52 °FPassing clouds.7 mph77%29.92 "Hg10 mi
2:15 AM53 °FPartly cloudy.7 mph75%29.93 "Hg10 mi
1:55 AM54 °FMostly cloudy.7 mph68%29.94 "Hg10 mi
1:15 AM55 °FPassing clouds.14 mph65%29.94 "Hg10 mi
12:55 AM55 °FPassing clouds.12 mph65%29.95 "Hg10 mi
12:35 AM56 °FPassing clouds.17 mph64%29.95 "Hg10 mi
12:15 AM55 °FClear.18 mph65%29.95 "Hg10 mi
11:55 PM
Mon, Mar 2
55 °FClear.21 mph66%29.95 "Hg10 mi
11:35 PM55 °FClear.18 mph67%29.95 "Hg10 mi
11:15 PM56 °FClear.20 mph66%29.96 "Hg10 mi
10:55 PM56 °FClear.21 mph64%29.96 "Hg10 mi
10:35 PM57 °FClear.26 mph62%29.98 "Hg10 mi
10:15 PM57 °FClear.26 mph61%29.99 "Hg10 mi
Weather by CustomWeather, © 2015

See weather overviewHow to use our weather pages